VK2KGV-15 Weather Reports


time (UTC)temp
C
wind
direction
speed
KPH
gust
KPH
rain 1hr
cm
rain 24hr
cm
rain mn
cm
humidity
%
barometer
mb
20260505015317 23 304 3.2 3.2 0.00 0.00 0.00 55 1017.0
20260505011305 22 284 3.2 6.4 0.00 0.00 0.00 57 1017.8
20260505005259 23 298 4.8 4.8 0.00 0.00 0.00 57 1017.8
20260504235240 23 112 1.6 4.8 0.00 0.00 0.00 57 1018.2
20260504233234 22 233 4.8 6.4 0.00 0.00 0.00 60 1018.5
20260504231228 21 238 3.2 6.4 0.00 0.00 0.00 64 1018.6
20260504223215 20 239 0.0 1.6 0.00 0.00 0.00 68 1019.0
20260504221209 18 112 1.6 1.6 0.00 0.00 0.00 67 1018.9
20260504215203 17 0 0.0 0.0 0.00 0.00 0.00 71 1019.2
20260504213156 16 0 0.0 0.0 0.00 0.00 0.00 72 1018.8
20260504211150 15 112 0.0 0.0 0.00 0.00 0.00 72 1019.0
20260504203138 15 315 0.0 0.0 0.00 0.00 0.00 72 1018.6
20260504195125 13 0 0.0 0.0 0.00 0.00 0.00 71 1018.5
20260504193119 13 0 0.0 0.0 0.00 0.00 0.00 72 1018.4
20260504185107 12 135 0.0 0.0 0.00 0.00 0.00 72 1017.9
20260504175048 11 0 0.0 0.0 0.00 0.00 0.00 75 1017.8
20260504174045 11 0 0.0 0.0 0.00 0.00 0.00 74 1017.8
20260504173042 11 0 0.0 0.0 0.00 0.00 0.00 74 1017.7
20260504171036 11 0 0.0 0.0 0.00 0.00 0.00 73 1017.6
20260504140940 12 180 0.0 0.0 0.00 0.00 0.00 64 1018.1
20260504080748 18 180 0.0 0.0 0.00 0.00 0.00 45 1017.1
20260504050652 27 321 1.6 4.8 0.00 0.00 0.00 27 1015.1
20260504044646 27 249 9.7 9.7 0.00 0.00 0.00 26 1015.0
20260504040634 27 307 3.2 11.3 0.00 0.00 0.00 29 1015.2
20260504034627 27 346 1.6 6.4 0.00 0.00 0.00 29 1015.4
20260504032621 27 268 4.8 9.7 0.00 0.00 0.00 30 1015.7
20260504030615 27 227 3.2 9.7 0.00 0.00 0.00 30 1015.7
20260504025612 26 112 4.8 8.0 0.00 0.00 0.00 30 1015.9